User: anonymous   Login
Location: Columbia
(38.9520°N, 92.3340°W)
Time: 00:23:28
(UTC-06:00)
Language:

Meteor 1-4 Rocket - Orbit

View from above orbital plane
View from above orbital plane
View from above satellite
View from above satellite

Ground track
Ground track

The orbit data is extracted from the following two-line orbital elements,

1 04394U 70037B   15029.17647042  .00005636  00000-0  23182-3 0  7846
2 04394 081.2469 313.4049 0044690 204.8189 155.0895 15.23027800432078
Epoch (UTC): 29 January 2015 04:14:07
Eccentricity: 0.0044690
inclination: 81.2469°
perigee height: 466 km
apogee height: 527 km
right ascension of ascending node: 313.4049°
argument of perigee: 204.8189°
revolutions per day: 15.23027800
mean anomaly at epoch: 155.0895°
orbit number at epoch: 43207

The dashed part of the orbit path shows where the satellite is in the earth's shadow,  

DLR